Skip Page Navigation
NASA JPL Caltech
NASA Logo - Jet Propulsion Laboratory + View the NASA Portal
+ Center for Near-Earth Object Studies
JPL Home Earth Solar System Stars & Galaxies Technology
JPL Solar System Dynamics
BODIES ORBITS EPHEMERIDES TOOLS PHYSICAL DATA DISCOVERY FAQ SITE MAP

Significant website upgrade scheduled for September 27. More details available here.

JPL Small-Body Database Browser
Search: [ help ]  
79134 (1990 VO8)
Classification: Main-belt Asteroid          SPK-ID: 2079134
Ephemeris | Orbit Diagram | Orbital Elements | Mission Design | Physical Parameters | Discovery Circumstances ]

[ show orbit diagram ]
Orbital Elements at Epoch 2459396.5 (2021-Jul-01.0) TDB
Reference: JPL 23 (heliocentric ecliptic J2000)
 Element Value Uncertainty (1-sigma)   Units 
e .3004980105933557 4.7791e-08  
a 2.561177474240639 1.1279e-08 au
q 1.791548738454811 1.18e-07 au
i 6.498590333058936 4.7658e-06 deg
node 130.9664008045347 3.0276e-05 deg
peri 263.2051798655813 3.1865e-05 deg
M 177.2955059296078 1.359e-05 deg
tp 2458659.184839835700
(2019-Jun-24.68483984)
5.34e-05 TDB
period 1497.124567638697
4.10
9.89e-06
2.708e-08
d
yr
n .2404609528035474 1.5885e-09 deg/d
Q 3.330806210026466 1.4669e-08 au
  Orbit Determination Parameters
   # obs. used (total)      893  
   data-arc span      11186 days (30.63 yr)  
   first obs. used      1990-10-25  
   last obs. used      2021-06-10  
   planetary ephem.      DE441  
   SB-pert. ephem.      SB441-N16  
   condition code      0  
   norm. resid. RMS      .52804  
   source      ORB  
   producer      Otto Matic  
   solution date      2021-Jul-08 23:07:50  

Additional Information
 Earth MOID = .811279 au 
 Jupiter MOID = 2.1471 au 
 T_jup = 3.361 
[ show covariance matrix ]

Ephemeris | Orbit Diagram | Orbital Elements | Mission Design | Physical Parameters | Discovery Circumstances ]

Physical Parameter Table
Parameter Symbol Value Units Sigma Reference Notes
absolute magnitude H 15.49   n/a MPCxxxxx  

79134 (1990 VO8)          Discovered 1990-Nov-15 by Elst, E. W. at La Silla
Reference: 20040504/Numbers.arcLast Updated: 2004-07-16

Alternate Designations
 1990 VO8 = 1998 SN169 
Ephemeris | Orbit Diagram | Orbital Elements | Mission Design | Physical Parameters | Discovery Circumstances ]
ABOUT SSD CREDITS/AWARDS PRIVACY/COPYRIGHT GLOSSARY LINKS
FirstGov 2021-Sep-18 07:16 UT
(server date/time)  
NASA Home Page
Site Manager:   Ryan S. Park
Webmaster  Alan B. Chamberlin